| time (UTC) | temp C | wind direction | speed KPH | gust KPH | rain 1hr cm | rain 24hr cm | rain mn cm | humidity % | barometer mb |
| 20260508090109 | 5 | 0 | 0.0 | 0.0 | 0.00 | 0.00 | 0.00 | 64 | 1006.3 |
| 20260508084552 | 6 | 0 | 0.0 | 0.0 | 0.00 | 0.00 | 0.00 | 60 | 1006.4 |
| 20260508083047 | 7 | 0 | 0.0 | 4.8 | 0.00 | 0.00 | 0.00 | 57 | 1006.2 |
| 20260508081605 | 7 | 348 | 3.2 | 9.7 | 0.00 | 0.00 | 0.00 | 57 | 1006.1 |
| 20260508080352 | 7 | 321 | 4.8 | 9.7 | 0.00 | 0.00 | 0.00 | 56 | 1005.9 |
| 20260508074548 | 7 | 323 | 3.2 | 6.4 | 0.00 | 0.00 | 0.00 | 58 | 1005.9 |
| 20260508073105 | 7 | 347 | 4.8 | 8.0 | 0.00 | 0.00 | 0.00 | 55 | 1005.8 |
| 20260508071548 | 7 | 331 | 3.2 | 12.9 | 0.00 | 0.00 | 0.00 | 56 | 1005.6 |
| 20260508070050 | 8 | 326 | 4.8 | 14.5 | 0.00 | 0.00 | 0.00 | 55 | 1005.6 |
| 20260508064554 | 8 | 337 | 4.8 | 9.7 | 0.00 | 0.00 | 0.00 | 55 | 1005.7 |
| 20260508063106 | 8 | 316 | 6.4 | 14.5 | 0.00 | 0.00 | 0.00 | 55 | 1005.8 |
| 20260508061559 | 7 | 347 | 6.4 | 12.9 | 0.00 | 0.00 | 0.00 | 56 | 1005.8 |
| 20260508054546 | 6 | 0 | 0.0 | 3.2 | 0.00 | 0.00 | 0.00 | 61 | 1006.2 |
| 20260508053050 | 6 | 0 | 0.0 | 8.0 | 0.00 | 0.00 | 0.00 | 61 | 1006.4 |
| 20260508051606 | 6 | 349 | 3.2 | 6.4 | 0.00 | 0.00 | 0.00 | 69 | 1006.5 |
| 20260508050052 | 6 | 0 | 0.0 | 3.2 | 0.00 | 0.00 | 0.00 | 57 | 1006.9 |
| 20260508044601 | 6 | 349 | 1.6 | 4.8 | 0.00 | 0.33 | 0.00 | 64 | 1006.7 |
| 20260508023047 | 10 | 343 | 1.6 | 6.4 | 0.00 | 0.38 | 0.33 | 49 | 1006.5 |
| 20260508021601 | 10 | 350 | 3.2 | 14.5 | 0.00 | 0.38 | 0.33 | 47 | 1006.5 |
| 20260508020054 | 11 | 5 | 8.0 | 16.1 | 0.00 | 0.38 | 0.33 | 46 | 1006.2 |
| 20260508014552 | 11 | 344 | 11.3 | 17.7 | 0.00 | 0.41 | 0.33 | 47 | 1006.1 |
| 20260508013048 | 11 | 347 | 3.2 | 8.0 | 0.00 | 0.41 | 0.33 | 46 | 1006.0 |
| 20260508011548 | 11 | 344 | 4.8 | 11.3 | 0.00 | 0.41 | 0.33 | 45 | 1006.0 |
| 20260508010053 | 12 | 341 | 1.6 | 14.5 | 0.00 | 0.41 | 0.33 | 42 | 1005.8 |
| 20260508004556 | 12 | 331 | 8.0 | 17.7 | 0.00 | 0.46 | 0.33 | 42 | 1005.4 |
| 20260508003054 | 12 | 346 | 9.7 | 16.1 | 0.00 | 0.46 | 0.33 | 41 | 1005.1 |
| 20260508001550 | 13 | 343 | 4.8 | 9.7 | 0.00 | 0.46 | 0.33 | 42 | 1005.0 |
| 20260508000053 | 13 | 337 | 9.7 | 14.5 | 0.00 | 0.46 | 0.33 | 40 | 1004.7 |
| 20260507234548 | 13 | 349 | 4.8 | 12.9 | 0.00 | 0.46 | 0.33 | 39 | 1004.7 |
| 20260507233053 | 14 | 327 | 8.0 | 16.1 | 0.00 | 0.46 | 0.33 | 38 | 1004.6 |
| 20260507211556 | 16 | 321 | 11.3 | 19.3 | 0.00 | 0.64 | 0.33 | 33 | 1003.3 |
| 20260507210108 | 16 | 280 | 14.5 | 29.0 | 0.00 | 0.64 | 0.33 | 35 | 1003.3 |
| 20260507204550 | 16 | 320 | 12.9 | 24.1 | 0.00 | 0.76 | 0.33 | 34 | 1003.1 |
| 20260507203116 | 16 | 318 | 14.5 | 32.2 | 0.00 | 0.76 | 0.33 | 37 | 1003.1 |
| 20260507201552 | 16 | 355 | 16.1 | 30.6 | 0.00 | 0.76 | 0.33 | 34 | 1003.0 |
| 20260507200046 | 16 | 304 | 14.5 | 29.0 | 0.00 | 0.76 | 0.33 | 39 | 1003.0 |
| 20260507194604 | 15 | 204 | 9.7 | 20.9 | 0.00 | 0.89 | 0.33 | 46 | 1002.9 |
| 20260507193049 | 12 | 178 | 12.9 | 24.1 | 0.00 | 0.89 | 0.33 | 72 | 1003.2 |
| 20260507191554 | 11 | 150 | 11.3 | 16.1 | 0.00 | 0.89 | 0.33 | 77 | 1003.3 |
| 20260507190057 | 10 | 183 | 16.1 | 22.5 | 0.00 | 0.89 | 0.33 | 80 | 1003.3 |
| 20260507184553 | 11 | 175 | 16.1 | 20.9 | 0.00 | 0.89 | 0.33 | 79 | 1003.5 |
| 20260507183056 | 10 | 178 | 17.7 | 25.7 | 0.00 | 0.89 | 0.33 | 81 | 1003.5 |
| 20260507181555 | 10 | 175 | 20.9 | 27.4 | 0.00 | 0.89 | 0.33 | 80 | 1003.8 |
| 20260507093049 | 8 | 0 | 0.0 | 6.4 | 0.00 | 0.89 | 0.33 | 88 | 1005.6 |
| 20260507091546 | 8 | 338 | 8.0 | 14.5 | 0.00 | 0.89 | 0.33 | 87 | 1005.6 |